Total_Precipitation_Accumulation
0.00 0.00 0.03 0.06 0.09 0.11 0.12 0.11 0.15 0.03 0.02 0.01 0.00 0.00 0.00 0.00 0.01 0.01 0.07 0.19 0.25 0.28 0.29 0.23 0.14 0.06 0.03 0.03 0.03 0.03 0.03 0.02 0.02 0.01 0.02 0.04 0.05 0.05 0.03 0.03 0.03 0.03 0.04
0.00 0.00 0.02 0.06 0.08 0.12 0.09 0.06 0.05 0.01 0.01 0.01 0.00 0.00 0.00 0.01 0.03 0.07 0.19 0.20 0.18 0.15 0.09 0.06 0.03 0.02 0.01 0.01 0.01 0.01 0.01 0.01 0.00 0.00 0.00 0.01 0.02 0.03 0.03 0.03 0.06 0.08 0.07
0.00 0.00 0.02 0.04 0.07 0.12 0.09 0.04 0.00 0.00 0.00 0.00 0.01 0.01 0.02 0.04 0.09 0.13 0.13 0.13 0.08 0.05 0.03 0.02 0.02 0.02 0.01 0.01 0.01 0.01 0.01 0.00 0.00 0.00 0.00 0.00 0.01 0.03 0.04 0.05 0.07 0.09 0.08
0.00 0.00 0.02 0.03 0.04 0.12 0.08 0.02 0.00 0.00 0.01 0.01 0.01 0.02 0.05 0.10 0.12 0.14 0.10 0.06 0.04 0.02 0.01 0.01 0.02 0.02 0.02 0.01 0.01 0.00 0.01 0.01 0.01 0.01 0.01 0.02 0.03 0.05 0.05 0.03 0.04 0.06 0.07
0.00 0.01 0.02 0.02 0.06 0.06 0.03 0.01 0.00 0.01 0.02 0.02 0.02 0.04 0.08 0.11 0.11 0.09 0.04 0.03 0.02 0.00 0.01 0.02 0.01 0.02 0.02 0.02 0.02 0.02 0.03 0.02 0.02 0.03 0.04 0.04 0.05 0.09 0.08 0.06 0.05 0.05 0.04
0.01 0.01 0.02 0.03 0.06 0.01 0.00 0.00 0.01 0.01 0.01 0.01 0.03 0.07 0.08 0.09 0.09 0.05 0.01 0.01 0.01 0.00 0.01 0.01 0.01 0.03 0.05 0.06 0.05 0.03 0.02 0.02 0.02 0.02 0.03 0.08 0.10 0.16 0.15 0.14 0.12 0.11 0.10
0.01 0.02 0.03 0.05 0.06 0.01 0.00 0.01 0.01 0.01 0.01 0.02 0.04 0.07 0.06 0.09 0.05 0.02 0.00 0.01 0.00 0.00 0.01 0.02 0.05 0.06 0.07 0.07 0.04 0.01 0.01 0.00 0.00 0.01 0.01 0.03 0.11 0.16 0.17 0.17 0.15 0.11 0.11
0.01 0.04 0.05 0.05 0.05 0.02 0.01 0.01 0.01 0.01 0.01 0.03 0.04 0.06 0.07 0.09 0.03 0.00 0.00 0.01 0.01 0.02 0.04 0.05 0.07 0.07 0.05 0.04 0.01 0.00 0.00 0.00 0.00 0.01 0.01 0.04 0.11 0.11 0.11 0.10 0.09 0.07 0.07
0.02 0.05 0.08 0.06 0.03 0.03 0.02 0.02 0.01 0.01 0.01 0.03 0.04 0.05 0.06 0.04 0.01 0.01 0.01 0.03 0.06 0.06 0.04 0.04 0.05 0.04 0.03 0.01 0.00 0.00 0.00 0.00 0.01 0.01 0.02 0.04 0.10 0.08 0.07 0.06 0.05 0.06 0.06
0.04 0.06 0.07 0.07 0.05 0.03 0.03 0.02 0.01 0.01 0.01 0.02 0.03 0.02 0.01 0.01 0.00 0.01 0.01 0.03 0.03 0.03 0.02 0.02 0.02 0.02 0.01 0.00 0.00 0.00 0.00 0.00 0.00 0.01 0.01 0.06 0.08 0.09 0.07 0.08 0.07 0.07 0.06
0.07 0.10 0.09 0.07 0.05 0.03 0.02 0.03 0.01 0.01 0.02 0.01 0.01 0.01 0.00 0.00 0.01 0.02 0.01 0.02 0.01 0.01 0.00 0.01 0.00 0.00 0.00 0.00 0.00 0.00 0.00 0.00 0.00 0.01 0.04 0.08 0.09 0.09 0.08 0.07 0.07 0.08 0.08
0.07 0.12 0.11 0.06 0.04 0.04 0.03 0.03 0.02 0.03 0.03 0.01 0.00 0.01 0.00 0.01 0.02 0.02 0.02 0.01 0.01 0.01 0.01 0.00 0.00 0.00 0.00 0.00 0.00 0.00 0.00 0.00 0.00 0.00 0.03 0.07 0.08 0.07 0.06 0.06 0.06 0.06 0.07
0.07 0.13 0.12 0.05 0.03 0.04 0.04 0.04 0.04 0.03 0.02 0.01 0.00 0.00 0.00 0.01 0.01 0.01 0.00 0.01 0.01 0.00 0.00 0.00 0.00 0.00 0.00 0.00 0.00 0.00 0.00 0.00 0.00 0.01 0.04 0.07 0.06 0.05 0.05 0.05 0.04 0.04 0.05
0.07 0.09 0.14 0.06 0.03 0.04 0.02 0.04 0.03 0.01 0.01 0.01 0.00 0.00 0.00 0.00 0.00 0.00 0.00 0.00 0.00 0.00 0.00 0.00 0.00 0.00 0.00 0.00 0.00 0.00 0.00 0.00 0.00 0.01 0.01 0.03 0.08 0.10 0.08 0.07 0.05 0.05 0.06
0.11 0.14 0.17 0.09 0.03 0.03 0.02 0.03 0.02 0.01 0.00 0.00 0.00 0.00 0.00 0.00 0.00 0.00 0.00 0.00 0.00 0.00 0.00 0.00 0.00 0.00 0.00 0.00 0.00 0.00 0.00 0.00 0.00 0.00 0.01 0.01 0.03 0.05 0.06 0.08 0.08 0.07 0.06
0.24 0.17 0.18 0.13 0.04 0.02 0.02 0.02 0.01 0.01 0.00 0.00 0.00 0.00 0.00 0.00 0.00 0.00 0.00 0.00 0.00 0.00 0.00 0.00 0.00 0.00 0.00 0.00 0.00 0.00 0.00 0.00 0.00 0.00 0.00 0.00 0.02 0.03 0.02 0.02 0.03 0.03 0.03
0.44 0.32 0.22 0.16 0.05 0.02 0.01 0.01 0.01 0.01 0.00 0.00 0.00 0.00 0.00 0.00 0.00 0.00 0.00 0.00 0.00 0.00 0.00 0.00 0.00 0.00 0.00 0.00 0.00 0.00 0.00 0.00 0.00 0.00 0.00 0.00 0.01 0.01 0.02 0.02 0.02 0.02 0.02
0.70 0.59 0.47 0.39 0.18 0.07 0.01 0.05 0.01 0.00 0.01 0.00 0.00 0.00 0.00 0.00 0.00 0.00 0.00 0.00 0.00 0.00 0.00 0.00 0.00 0.00 0.00 0.00 0.00 0.00 0.00 0.00 0.00 0.00 0.00 0.00 0.00 0.00 0.00 0.00 0.00 0.01 0.01
0.76 0.76 0.62 0.54 0.29 0.15 0.03 0.09 0.05 0.00 0.01 0.00 0.00 0.00 0.00 0.00 0.00 0.00 0.00 0.00 0.00 0.00 0.00 0.00 0.00 0.00 0.00 0.00 0.00 0.00 0.00 0.00 0.00 0.00 0.00 0.00 0.00 0.00 0.00 0.00 0.00 0.00 0.00
1.43 1.25 0.78 0.51 0.38 0.16 0.21 0.17 0.07 0.02 0.01 0.00 0.00 0.00 0.00 0.00 0.00 0.00 0.00 0.00 0.00 0.00 0.00 0.00 0.00 0.00 0.00 0.00 0.00 0.00 0.00 0.00 0.00 0.00 0.00 0.00 0.00 0.00 0.00 0.00 0.00 0.00 0.00
1.59 1.69 1.32 0.73 0.46 0.23 0.21 0.16 0.06 0.02 0.01 0.00 0.00 0.00 0.00 0.00 0.00 0.00 0.00 0.00 0.00 0.00 0.00 0.00 0.00 0.00 0.00 0.00 0.00 0.00 0.00 0.00 0.00 0.00 0.00 0.00 0.00 0.00 0.00 0.00 0.00 0.00 0.00
1.41 1.49 1.76 1.36 0.61 0.32 0.25 0.24 0.18 0.02 0.01 0.01 0.02 0.01 0.00 0.00 0.00 0.00 0.00 0.00 0.00 0.00 0.00 0.00 0.00 0.00 0.00 0.00 0.00 0.00 0.00 0.00 0.00 0.00 0.00 0.00 0.00 0.00 0.00 0.00 0.00 0.00 0.00
1.18 1.51 1.56 1.69 1.06 0.51 0.39 0.32 0.29 0.09 0.05 0.06 0.01 0.01 0.00 0.00 0.00 0.00 0.00 0.00 0.00 0.00 0.00 0.00 0.00 0.00 0.00 0.00 0.00 0.00 0.00 0.00 0.00 0.00 0.00 0.00 0.00 0.00 0.00 0.00 0.00 0.00 0.00
1.05 1.16 1.45 1.95 1.61 0.94 0.60 0.31 0.20 0.11 0.03 0.01 0.04 0.07 0.04 0.01 0.00 0.00 0.01 0.01 0.00 0.00 0.00 0.00 0.00 0.00 0.00 0.00 0.00 0.00 0.00 0.00 0.00 0.00 0.00 0.00 0.00 0.00 0.00 0.00 0.00 0.00 0.00
1.11 1.02 1.19 1.88 2.16 1.23 0.79 0.44 0.37 0.20 0.07 0.05 0.07 0.11 0.12 0.07 0.03 0.02 0.02 0.01 0.00 0.00 0.00 0.00 0.00 0.00 0.00 0.00 0.00 0.00 0.00 0.00 0.00 0.00 0.00 0.00 0.00 0.00 0.00 0.00 0.00 0.00 0.00
0.87 1.11 1.08 1.69 2.23 1.85 0.89 0.47 0.38 0.34 0.11 0.05 0.04 0.07 0.09 0.07 0.07 0.04 0.03 0.03 0.03 0.00 0.00 0.00 0.00 0.00 0.00 0.00 0.00 0.00 0.00 0.00 0.00 0.00 0.00 0.00 0.00 0.00 0.00 0.00 0.00 0.00 0.00